User: anonymous   Login
Location: Theydon Bois
(51.6750°N, 0.1050°E)
Time: 20:04:45
(UTC+01:00)
Language:

Cosmos 2058 - Orbit

View from above orbital plane
View from above orbital plane
View from above satellite
View from above satellite

Ground track
Ground track

The orbit data is extracted from the following two-line orbital elements,

1 20465U 90010A   18173.36744533  .00000252  00000-0  19150-4 0  9991
2 20465  82.4902 251.8685 0016925 124.8459 235.4359 14.97733360540749
Epoch (UTC): 22 June 2018 08:49:07
Eccentricity: 0.0016925
inclination: 82.4902°
perigee height: 562 km
apogee height: 585 km
right ascension of ascending node: 251.8685°
argument of perigee: 124.8459°
revolutions per day: 14.97733360
mean anomaly at epoch: 235.4359°
orbit number at epoch: 54074

The dashed part of the orbit path shows where the satellite is in the earth's shadow,  

DLR